Weather Roundup
Issued by NWS Chicago, IL

Home | Current Version | Previous Version | Graphics & Text | Print | Product List | Glossary On
Versions: 1 2 3 4 5 6 7 8 9 10 11 12 13 14 15 16 17 18 19 20 21 22 23 24 25 26 27 28 29 30 31 32 33 34 35 36 37 38 39 40 41 42 43 44 45 46 47 48 49 50
493
NZUS59 KLOT 101903
HRRLOT

CHICAGO AREA WEATHER ROUNDUP
NATIONAL WEATHER SERVICE CHICAGO/ROMEOVILLE IL
100 PM CST SAT DEC 10 2016

NOTE: "FAIR" INDICATES FEW OR NO CLOUDS BELOW 12,000 FEET WITH NO
SIGNIFICANT WEATHER AND/OR OBSTRUCTIONS TO VISIBILITY.

* THESE STATIONS ARE NOT UNDER NWS QUALITY CONTROL. THEY ALSO MAY NOT
  REPORT WEATHER SUCH AS PRECIPITATION OR FOG.

ILZ005-006-012>014-019>023-102000-
NORTHEAST ILLINOIS

CITY           SKY/WX    TMP DP  RH WIND       PRES   REMARKS
OHARE          CLOUDY    23  12  62 SW9       30.45F WCI  13
MIDWAY         CLOUDY    24  12  60 W12       30.46F WCI  13
AURORA         CLOUDY    24  15  68 S9        30.46F WCI  14
LANSING*       PTSUNNY   24  16  73 SW7       30.47F WCI  16
WAUKEGAN       MOSUNNY   23  12  62 SW7       30.43F WCI  15
DUPAGE AIRPORT CLOUDY    22  12  65 W7        30.44F WCI  13
WHEELING       MOSUNNY   23  12  62 W6        30.46F WCI  16
KANKAKEE*      CLOUDY    26  15  63 CALM      30.48F
MORRIS*        CLOUDY    25  14  64 CALM      30.46F
NORTHERLY ISL    N/A     24  13  62 SW8         N/A  WCI  15
$$

WIZ051-052-058>065-066-070>072-102000-
SOUTHEAST WISCONSIN

CITY           SKY/WX    TMP DP  RH WIND       PRES   REMARKS
MILWAUKEE      PTSUNNY   24  10  55 W8        30.42F WCI  15
KENOSHA*       MOSUNNY   23  13  65 W7        30.42F WCI  15
RACINE*        MOSUNNY   22  10  60 W12       30.44F WCI  10
BURLINGTON     MOSUNNY   26  17  68 W9        30.42F WCI  17
WAUKESHA       MOSUNNY   18   9  68 W10       30.42F WCI   6
WEST BEND      PTSUNNY   19   9  63 SW7       30.40F WCI  10
$$

INZ001>003-010>013-019-020-102000-
NORTHWEST INDIANA

CITY           SKY/WX    TMP DP  RH WIND       PRES   REMARKS
GARY*          CLOUDY    27  14  59 SW10      30.48F WCI  17
MICHIGAN CITY* NOT AVBL
RENSSELAER*    NOT AVBL
VALPARAISO     MOSUNNY   25  13  60 W9        30.46F WCI  15
$$

LMZ740>746-102000-
SOUTHERN LAKE MICHIGAN

STATION/POSITION TIME  SKY/WX   TEMP WIND        PRES    VSBY
                                AIR  DIR/SP/G
                 (UTC)          (F)  (DEG/KT/KT) (MB)    (MI)
HARRISON CRIB    NOT AVBL
BURNHAM HARBOR   1900            24  250/  7/ 11   N/A
CALUMET HARBOR   1830            24  230/  6/ 11 1030.9F
BURNS HARBOR     1840            25  260/  7/ 14 1032.2F
MICHIGAN CITY    NOT AVBL
$$

ABBREVIATIONS USED IN REMARKS
   TC - TEMPERATURE IN CELSIUS
  WCI - WIND CHILL INDEX
   HX - HEAT INDEX
  VSB - VISIBILITY
$$




USA.gov is the U.S. government's official web portal to all federal, state and local government web resources and services.